Weather observations for the past three days for
Muscatine
Imperial (Metric)
Date Time (cdt) Wind (mph) Vis. (mi.) Weather Sky Cond. Temperature (ºF) Relative Humidity Wind Chill (°F) Heat Index (°F) Pressure Precipitation (in)
Air Dwpt 6 hour altimeter (in) sea level (mb) 1 hr 3 hr 6 hr
Max. Min.
20 14:35 Vrbl 5 10.00 Mostly Cloudy SCT042 SCT048 BKN055 77 59 54% 79 30.14 0.0
20 14:15 SW 5 10.00 Fair CLR 77 60.8 57% 79 30.14 0.0
20 13:55 S 3 10.00 Fair CLR 75.2 60.8 61% 77 30.15 0.0
20 13:35 Calm 10.00 A Few Clouds FEW060 75.2 60.8 61% 77 30.15 0.0
20 13:15 Calm 10.00 Mostly Cloudy BKN060 75.2 59 57% 78 30.15 0.0
20 12:55 Calm 10.00 Fair CLR 75.2 59 57% 78 30.15 0.0
20 12:35 N 5 10.00 Fair CLR 75.2 60.8 61% 77 30.15 0.0
20 12:15 NW 6 10.00 Fair CLR 73.4 60.8 65% 30.16 0.0
20 11:55 W 6 10.00 Fair CLR 73.4 62.6 69% 30.16 0.0
20 11:35 Vrbl 5 10.00 Fair CLR 73.4 66.2 78% 30.16 0.0
20 11:15 Calm 10.00 Fair CLR 73.4 62.6 69% 30.16 0.0
20 10:55 Calm 10.00 Fair CLR 73.4 64.4 74% 30.16 0.0
20 10:35 Calm 10.00 Fair CLR 71.6 66.2 83% 30.16 0.0
20 10:15 Calm 10.00 Fair CLR 71.6 64.4 78% 30.16 0.0
20 09:55 Calm 10.00 Fair CLR 69.8 64.4 83% 30.16 0.0
20 09:35 Calm 10.00 Fair CLR 68 66.2 94% 30.16 0.0
20 09:15 Calm 10.00 Fair CLR 68 68 100% 30.16 0.0
20 08:55 Calm 10.00 Fair CLR 66.2 66.2 100% 30.16 0.0
20 08:35 Calm 10.00 Fair CLR 66.2 66.2 100% 30.16 0.0
20 08:15 Calm 10.00 Fair CLR 64.4 64.4 100% 30.15 0.0
20 07:55 Calm 10.00 Fair CLR 64.4 64.4 100% 30.15 0.0
20 07:35 Calm 10.00 Fair CLR 62.6 62.6 100% 30.14 0.0
20 07:15 Calm 10.00 Fair CLR 62.6 62.6 100% 30.14 0.0
20 06:55 Calm 10.00 Fair CLR 60.8 60.8 100% 30.14 0.0
20 06:35 Calm 10.00 Fair CLR 60.8 60.8 100% 30.14 0.0
20 06:15 Calm 10.00 Fair CLR 59 59 100% 30.14 0.0
20 05:55 Calm 10.00 Fair CLR 59 59 100% 30.13 0.0
20 05:35 Calm 10.00 Fair CLR 59 59 100% 30.13 0.0
20 05:15 Calm 10.00 Fair CLR 59 59 100% 30.13 0.0
20 04:55 W 3 10.00 Fair CLR 59 59 100% 30.13 0.0
20 04:35 Calm 10.00 Fair CLR 59 59 100% 30.12 0.0
20 04:15 Calm 10.00 Fair CLR 59 59 100% 30.12 0.0
20 03:35 Calm 10.00 Fair CLR 57.2 57.2 100% 30.12 0.0
20 03:15 Calm 10.00 Fair CLR 57.2 57.2 100% 30.12 0.0
20 02:55 Calm 10.00 Fair CLR 59 59 100% 30.11 0.0
20 02:35 Calm 10.00 Fair CLR 57.2 57.2 100% 30.11 0.0
20 02:15 Calm 10.00 Fair CLR 57.2 57.2 100% 30.11 0.0
20 01:55 Calm 9.00 Fair CLR 57.2 57.2 100% 30.12 0.0
20 01:35 Calm 10.00 Fair CLR 59 59 100% 30.12 0.0
20 01:15 Calm 10.00 Fair CLR 59 59 100% 30.12 0.0
20 00:55 Calm 10.00 Fair CLR 59 59 100% 30.13 0.0
20 00:35 Calm 10.00 Fair CLR 59 59 100% 30.13 0.0
20 00:15 Calm 10.00 Fair CLR 60.8 60.8 100% 30.13 0.0
19 23:55 Calm 10.00 Fair CLR 60.8 60.8 100% 30.13 0.0
19 23:35 Calm 10.00 Fair CLR 60.8 60.8 100% 30.13 0.0
19 23:15 Calm 10.00 Fair CLR 62.6 62.6 100% 30.13 0.0
19 22:55 Calm 10.00 Fair CLR 62.6 62.6 100% 30.13 0.0
19 22:35 Calm 10.00 Fair CLR 62.6 62.6 100% 30.13 0.0
19 22:15 Calm 10.00 Fair CLR 62.6 62.6 100% 30.13 0.0
19 21:55 Calm 10.00 Fair CLR 62.6 62.6 100% 30.13 0.0
19 21:35 Calm 10.00 Fair CLR 66.2 66.2 100% 30.12 0.0
19 21:15 Calm 10.00 Fair CLR 64.4 64.4 100% 30.12 0.0
19 20:55 Calm 10.00 Fair CLR 66.2 66.2 100% 30.12 0.0
19 20:35 Calm 10.00 Fair CLR 69.8 66.2 88% 30.12 0.0
19 20:15 Calm 10.00 Fair CLR 69.8 66.2 88% 30.12 0.0
19 19:55 Calm 10.00 Fair CLR 71.6 62.6 73% 30.12 0.0
19 19:15 SW 3 10.00 Fair CLR 75.2 59 57% 78 30.11 0.0
19 18:55 S 3 10.00 Fair CLR 75.2 57.2 54% 78 30.11 0.0
19 18:35 S 5 10.00 Fair CLR 75.2 57.2 54% 78 30.12 0.0
19 18:15 SW 5 10.00 Fair CLR 75.2 57.2 54% 78 30.13 0.0
19 17:55 SW 6 10.00 Fair CLR 77 57.2 51% 79 30.13 0.0
19 17:35 SW 5 10.00 Fair CLR 77 55.4 47% 79 30.13 0.0
19 17:15 S 6 10.00 A Few Clouds FEW055 77 57.2 51% 79 30.13 0.0
19 16:55 Calm 10.00 A Few Clouds FEW050 77 53.6 44% 78 30.12 0.0
19 16:35 SW 5 G 13 10.00 Fair CLR 78.8 55.4 45% 79 30.13 0.0
19 16:15 Vrbl 6 10.00 Fair CLR 78.8 53.6 42% 79 30.13 0.0
19 15:55 S 8 10.00 Partly Cloudy SCT055 78.8 55.4 45% 79 30.14 0.0
19 15:35 Vrbl 6 10.00 Mostly Cloudy BKN055 78.8 55.4 45% 79 30.15 0.0
19 15:15 Vrbl 5 10.00 Mostly Cloudy BKN055 77 55.4 47% 79 30.16 0.0
19 14:55 Calm 10.00 Mostly Cloudy SCT050 BKN055 77 55.4 47% 79 30.17 0.0
19 14:35 S 8 10.00 Overcast OVC050 75.2 55.4 50% 78 30.17 0.0
19 14:15 Vrbl 5 10.00 Overcast BKN050 OVC055 75.2 55.4 50% 78 30.17 0.0
19 13:55 SE 6 10.00 Overcast SCT050 OVC055 75.2 55.4 50% 78 30.18 0.0
19 13:35 Calm 10.00 Mostly Cloudy BKN060 75.2 57.2 54% 78 30.18 0.0
19 13:15 Vrbl 5 10.00 Partly Cloudy SCT055 75.2 55.4 50% 78 30.19 0.0
19 12:55 E 5 10.00 Partly Cloudy SCT050 SCT055 75.2 55.4 50% 78 30.19 0.0
19 12:35 Calm 10.00 Partly Cloudy FEW047 SCT055 73.4 55.4 53% 30.2 0.0
19 12:15 Vrbl 3 10.00 A Few Clouds FEW050 75.2 55.4 50% 78 30.19 0.0
19 11:55 S 7 10.00 Mostly Cloudy BKN050 73.4 55.4 53% 30.19 0.0
19 11:35 S 5 10.00 A Few Clouds FEW055 73.4 57.2 57% 30.19 0.0
19 11:15 SE 7 10.00 Fair CLR 73.4 59 61% 30.2 0.0
19 10:55 Calm 10.00 A Few Clouds FEW055 73.4 59 61% 30.2 0.0
19 10:35 Calm 10.00 Fair CLR 71.6 57.2 61% 30.21 0.0
19 10:15 Calm 10.00 Fair CLR 71.6 62.6 73% 30.2 0.0
19 09:55 Calm 10.00 Fair CLR 69.8 62.6 78% 30.21 0.0
19 09:35 Calm 10.00 Fair CLR 69.8 62.6 78% 30.21 0.0
19 09:15 SW 3 10.00 Fair CLR 69.8 64.4 83% 30.22 0.0
19 08:55 Calm 10.00 Fair CLR 68 66.2 94% 30.22 0.0
19 08:35 Calm 10.00 Fair CLR 66.2 66.2 100% 30.22 0.0
19 08:15 Calm 10.00 Fair CLR 64.4 64.4 100% 30.23 0.0
19 07:55 Calm 10.00 Fair CLR 62.6 62.6 100% 30.23 0.0
19 07:35 Calm 10.00 Fair CLR 60.8 60.8 100% 30.23 0.0
19 07:15 Calm 10.00 Fair CLR 59 59 100% 30.23 0.0
19 06:55 Calm 10.00 Fair CLR 57.2 57.2 100% 30.23 0.0
19 06:35 Calm 10.00 Fair CLR 55.4 55.4 100% 30.22 0.0
19 06:15 Calm 10.00 Fair CLR 55.4 55.4 100% 30.22 0.0
19 05:55 Calm 10.00 Fair CLR 55.4 55.4 100% 30.22 0.0
19 05:35 Calm 10.00 Fair CLR 55.4 55.4 100% 30.22 0.0
19 05:15 Calm 10.00 Fair CLR 55.4 55.4 100% 30.22 0.0
19 04:55 Calm 10.00 Fair CLR 55.4 55.4 100% 30.21 0.0
19 04:35 Calm 10.00 Fair CLR 55.4 55.4 100% 30.21 0.0
19 04:15 Calm 10.00 Fair CLR 55.4 55.4 100% 30.21 0.0
19 03:55 Calm 10.00 Fair CLR 55.4 55.4 100% 30.2 0.0
19 03:35 Calm 10.00 Fair CLR 55.4 55.4 100% 30.2 0.0
19 03:15 Calm 10.00 Fair CLR 57.2 57.2 100% 30.2 0.0
19 02:55 Calm 10.00 Fair CLR 57.2 57.2 100% 30.2 0.0
19 02:35 Calm 10.00 Fair CLR 57.2 57.2 100% 30.2 0.0
19 02:15 Calm 10.00 Fair CLR 57.2 57.2 100% 30.19 0.0
19 01:55 Calm 10.00 Fair CLR 57.2 57.2 100% 30.2 0.0
19 01:35 Calm 10.00 Fair CLR 57.2 57.2 100% 30.2 0.0
19 01:15 Calm 10.00 Fair CLR 57.2 57.2 100% 30.2 0.0
19 00:55 Calm 10.00 Fair CLR 57.2 57.2 100% 30.2 0.0
19 00:35 Calm 10.00 Fair CLR 59 59 100% 30.2 0.0
19 00:15 Calm 10.00 Fair CLR 59 59 100% 30.2 0.0
18 23:55 Calm 10.00 Fair CLR 59 59 100% 30.19 0.0
18 23:15 Calm 10.00 Fair CLR 59 59 100% 30.19 0.0
18 22:55 Calm 10.00 Fair CLR 60.8 60.8 100% 30.19 0.0
18 22:35 Calm 10.00 Fair CLR 62.6 62.6 100% 30.19 0.0
18 22:15 Calm 10.00 Fair CLR 62.6 62.6 100% 30.19 0.0
18 21:55 Calm 10.00 Fair CLR 62.6 62.6 100% 30.18 0.0
18 21:35 Calm 10.00 Fair CLR 64.4 62.6 94% 30.18 0.0
18 21:15 Calm 10.00 NULL NULL 66.2 60.8 83% 30.18 0.0
18 20:55 Calm 10.00 Fair CLR 64.4 64.4 100% 30.18 0.0
18 20:35 NW 3 10.00 Fair CLR 66.2 64.4 94% 30.18 0.0
18 20:15 NW 3 10.00 Fair CLR 69.8 60.8 73% 30.18 0.0
18 19:55 Calm 10.00 Fair CLR 71.6 59 65% 30.18 0.0
18 19:35 N 3 10.00 Fair CLR 71.6 57.2 61% 30.18 0.0
18 19:15 N 5 10.00 Fair CLR 73.4 57.2 57% 30.18 0.0
18 18:55 N 5 10.00 Fair CLR 73.4 55.4 53% 30.19 0.0
18 18:35 N 6 10.00 Fair CLR 75.2 53.6 47% 78 30.19 0.0
18 18:15 N 6 10.00 Fair CLR 75.2 51.8 44% 78 30.19 0.0
18 17:55 NE 8 10.00 Fair CLR 75.2 53.6 47% 78 30.19 0.0
18 17:35 NW 5 10.00 Partly Cloudy SCT065 75.2 51.8 44% 78 30.2 0.0
18 17:15 NE 5 10.00 Overcast FEW055 OVC065 75.2 51.8 44% 78 30.21 0.0
18 16:55 NE 7 10.00 Mostly Cloudy SCT055 BKN065 77 53.6 44% 78 30.21 0.0
18 16:35 NW 5 10.00 Fair CLR 75.2 51.8 44% 78 30.21 0.0
18 16:15 N 3 G 12 10.00 A Few Clouds FEW060 75.2 53.6 47% 78 30.21 0.0
18 15:55 Calm 10.00 Mostly Cloudy BKN060 75.2 53.6 47% 78 30.21 0.0
18 15:35 Vrbl 5 10.00 Partly Cloudy FEW050 SCT060 75.2 53.6 47% 78 30.22 0.0
18 15:15 NE 9 10.00 Mostly Cloudy FEW050 BKN060 75.2 53.6 47% 78 30.22 0.0
18 14:55 N 8 10.00 Mostly Cloudy BKN060 73.4 53.6 50% 30.22 0.0
18 14:35 NE 8 10.00 Mostly Cloudy BKN060 73.4 53.6 50% 30.23 0.0
18 14:15 NE 8 10.00 A Few Clouds FEW060 75.2 55.4 50% 78 30.23 0.0
18 13:55 Vrbl 5 G 13 10.00 Partly Cloudy FEW048 SCT060 73.4 53.6 50% 30.23 0.0
18 13:35 NE 8 10.00 A Few Clouds FEW055 75.2 55.4 50% 78 30.24 0.0
18 13:15 NE 7 10.00 Partly Cloudy FEW050 SCT060 73.4 55.4 53% 30.24 0.0
18 12:55 N 5 G 12 10.00 A Few Clouds FEW055 73.4 55.4 53% 30.24 0.0
18 12:35 NE 5 10.00 Partly Cloudy FEW041 SCT050 SCT055 73.4 57.2 57% 30.24 0.0
18 12:15 E 9 10.00 Mostly Cloudy SCT042 BKN055 73.4 55.4 53% 30.24 0.0
18 11:55 NE 6 G 12 10.00 Partly Cloudy FEW048 SCT055 71.6 55.4 57% 30.24 0.0
18 11:35 Vrbl 3 G 14 10.00 Partly Cloudy FEW038 SCT055 71.6 55.4 57% 30.24 0.0
18 11:15 Calm 9.00 A Few Clouds FEW037 71.6 57.2 61% 30.24 0.0
18 10:55 Calm 10.00 Fair CLR 71.6 57.2 61% 30.24 0.0
18 10:35 Vrbl 5 G 14 10.00 Fair CLR 69.8 57.2 64% 30.24 0.0
18 10:15 Vrbl 6 G 15 10.00 Fair CLR 69.8 60.8 73% 30.24 0.0
18 09:55 NE 7 10.00 Fair CLR 68 59 73% 30.24 0.0
18 09:35 Vrbl 5 10.00 Fair CLR 68 60.8 78% 30.25 0.0
18 09:15 Calm 10.00 Fair CLR 66.2 60.8 83% 30.24 0.0
18 08:55 N 6 10.00 Fair CLR 66.2 60.8 83% 30.24 0.0
18 08:35 NE 7 10.00 Fair CLR 64.4 60.8 88% 30.24 0.0
18 08:15 Vrbl 3 10.00 Fair CLR 62.6 60.8 94% 30.24 0.0
18 07:55 N 6 10.00 Fair CLR 62.6 60.8 94% 30.24 0.0
18 07:35 N 5 10.00 Fair CLR 60.8 60.8 100% 30.22 0.0
18 07:15 N 5 10.00 Fair CLR 59 59 100% 30.22 0.0
18 06:55 NE 5 10.00 Fair CLR 57.2 57.2 100% 30.21 0.0
18 06:35 NE 5 10.00 Fair CLR 57.2 57.2 100% 30.21 0.0
18 06:15 Calm 10.00 Fair CLR 57.2 57.2 100% 30.21 0.0
18 05:55 N 5 10.00 Fair CLR 55.4 55.4 100% 30.2 0.0
18 05:35 N 3 10.00 Fair CLR 55.4 55.4 100% 30.19 0.0
18 05:15 N 5 10.00 Fair CLR 57.2 57.2 100% 30.19 0.0
18 04:55 Calm 10.00 Fair CLR 57.2 57.2 100% 30.19 0.0
18 04:35 Calm 10.00 Fair CLR 55.4 55.4 100% 30.19 0.0
18 04:15 Calm 10.00 Fair CLR 55.4 55.4 100% 30.18 0.0
18 03:55 N 5 10.00 Fair CLR 55.4 55.4 100% 30.18 0.0
18 03:35 Calm 10.00 Fair CLR 59 59 100% 30.18 0.0
18 03:15 NW 3 10.00 Fair CLR 57.2 57.2 100% 30.19 0.0
18 02:55 N 5 10.00 Fair CLR 59 59 100% 30.18 0.0
18 02:35 N 6 10.00 Fair CLR 59 59 100% 30.18 0.0
18 02:15 N 5 10.00 Fair CLR 59 59 100% 30.18 0.0
18 01:55 NW 6 10.00 Fair CLR 59 59 100% 30.18 0.0
18 01:35 N 5 10.00 Fair CLR 59 59 100% 30.18 0.0
18 01:15 NW 3 10.00 Fair CLR 59 59 100% 30.18 0.0
18 00:55 NW 5 10.00 Fair CLR 59 59 100% 30.17 0.0
18 00:35 Calm 10.00 Fair CLR 60.8 60.8 100% 30.17 0.0
18 00:15 Calm 10.00 Fair CLR 59 59 100% 30.16 0.0
17 23:55 Calm 10.00 Fair CLR 62.6 60.8 94% 30.16 0.0
17 23:35 NE 3 10.00 Fair CLR 62.6 60.8 94% 30.15 0.0
17 23:15 NE 5 10.00 Fair CLR 62.6 60.8 94% 30.14 0.0
17 22:55 Calm 10.00 Fair CLR 62.6 62.6 100% 30.13 0.0
17 22:35 Calm 10.00 Fair CLR 64.4 62.6 94% 30.12 0.0
17 22:15 Calm 10.00 Fair CLR 64.4 62.6 94% 30.12 0.0
17 21:55 N 6 10.00 Fair CLR 64.4 60.8 88% 30.11 0.0
17 21:35 N 6 10.00 Fair CLR 64.4 62.6 94% 30.11 0.0
17 21:15 N 5 10.00 Fair CLR 66.2 59 78% 30.1 0.0
17 20:55 N 6 10.00 Fair CLR 66.2 59 78% 30.09 0.0
17 20:35 N 6 10.00 Fair CLR 68 57.2 69% 30.09 0.0
17 20:15 N 8 10.00 Fair CLR 71.6 57.2 61% 30.09 0.0
17 19:55 N 8 10.00 Fair CLR 73.4 57.2 57% 30.08 0.0
17 19:35 N 10 10.00 Fair CLR 73.4 57.2 57% 30.08 0.0
17 19:15 N 9 10.00 Fair CLR 75.2 57.2 54% 78 30.07 0.0
17 18:55 N 12 10.00 Fair CLR 75.2 55.4 50% 78 30.08 0.0
17 18:35 N 10 10.00 Fair CLR 77 55.4 47% 79 30.08 0.0
17 18:15 N 10 G 17 10.00 Fair CLR 77 55.4 47% 79 30.07 0.0
17 17:55 N 14 10.00 Fair CLR 77 57.2 51% 79 30.07 0.0
17 17:35 N 9 10.00 Partly Cloudy FEW055 SCT065 77 59 54% 79 30.07 0.0
17 17:15 N 14 10.00 Mostly Cloudy SCT055 BKN065 78.8 57.2 48% 80 30.07 0.0
17 16:55 NW 10 10.00 Partly Cloudy FEW055 SCT065 78.8 59 51% 80 30.07 0.0
17 16:35 N 9 10.00 Fair CLR 78.8 59 51% 80 30.07 0.0
17 16:15 N 12 G 21 10.00 A Few Clouds FEW065 78.8 57.2 48% 80 30.07 0.0
17 15:55 N 9 10.00 A Few Clouds FEW065 77 57.2 51% 79 30.07 0.0
17 15:35 NW 10 G 16 10.00 Fair CLR 78.8 59 51% 80 30.07 0.0
17 15:15 N 10 G 17 10.00 A Few Clouds FEW050 FEW070 78.8 60.8 54% 80 30.07 0.0
17 14:55 NW 14 10.00 A Few Clouds FEW050 78.8 59 51% 80 30.07 0.0
Date Time (cdt) Wind (mph) Vis. (mi.) Weather Sky Cond. Air Dwpt Max. Min. Relative Humidity Wind Chill (°F) Heat Index (°F) altimeter (in) sea level (mb) 1 hr 3 hr 6 hr
6 hour
Temperature (ºF) Pressure Precipitation (in)